Torna al catalogo

ARIANE 3 DEB

AttivoGTO
NORAD 27026·DEBRIS·🇫🇷 France

Lanciato Sep 8, 1988 da Guiana Space Centre

Loading…

TLE

AggiornatoSource: Space-Track

Epoca: Sep 14, 2026, 22:21 UTC

1 27026U 88081J   26257.93153412  .00000276  00000-0  26094-2 0  9990
2 27026   7.4294 142.4605 7107336 352.3108 234.7365  2.36528490268528

Traccia ARIANE 3 DEB in tempo reale con AllMySat

Download on the App Store